W8UFO-13 Weather Reports


Display with metric or nautical units.
time (UTC)temp
F
wind
direction
speed
MPH
gust
MPH
rain 1hr
in
rain 24hr
in
rain mn
in
humidity
%
barometer
mb
20260502151916 60 0.0 1.0 0.00 0.00 0.00 51 1017.3
20260502151416 60 0.0 1.0 0.00 0.00 0.00 50 1017.3
20260502150916 60 45 2.0 5.0 0.00 0.00 0.00 48 1017.3
20260502150416 60 0 1.0 3.0 0.00 0.00 0.00 49 1017.4
20260502130416 55 0.0 0.0 0.00 0.00 0.00 60 1017.1
20260502123416 52 225 1.0 2.0 0.00 0.00 0.00 70 1017.0
20260502122916 51 0.0 1.0 0.00 0.00 0.00 72 1016.9
20260502122416 51 225 1.0 2.0 0.00 0.00 0.00 71 1017.0
20260502121916 51 0.0 1.0 0.00 0.00 0.00 71 1017.1
20260502121416 51 0.0 1.0 0.00 0.00 0.00 72 1017.0
20260502120916 51 0.0 1.0 0.00 0.00 0.00 72 1017.0
20260502120416 51 0.0 1.0 0.00 0.00 0.00 73 1017.2
20260502115916 51 90 1.0 2.0 0.00 0.00 0.00 71 1017.0
20260502115416 50 0.0 0.0 0.00 0.00 0.00 72 1016.8
20260502114916 50 0.0 0.0 0.00 0.00 0.00 73 1016.9
20260502114416 50 0.0 0.0 0.00 0.00 0.00 72 1016.7
20260502113916 50 135 1.0 2.0 0.00 0.00 0.00 73 1016.6
20260502113416 50 0.0 1.0 0.00 0.00 0.00 73 1016.6
20260502112916 50 0.0 0.0 0.00 0.00 0.00 74 1016.4
20260502112416 50 0.0 1.0 0.00 0.00 0.00 74 1016.5
20260502111916 50 0.0 0.0 0.00 0.00 0.00 74 1016.6
20260502111416 50 0.0 1.0 0.00 0.00 0.00 73 1016.5
20260502110916 50 0.0 0.0 0.00 0.00 0.00 74 1016.5
20260502110417 50 0.0 0.0 0.00 0.00 0.00 74 1016.6
20260502105916 50 0.0 1.0 0.00 0.00 0.00 73 1016.7
20260502105416 50 0.0 0.0 0.00 0.00 0.00 74 1016.5
20260502104916 50 90 1.0 3.0 0.00 0.00 0.00 73 1016.4
20260502104416 50 0.0 1.0 0.00 0.00 0.00 73 1016.5
20260502103916 50 0.0 0.0 0.00 0.00 0.00 74 1016.5
20260502103416 50 0.0 0.0 0.00 0.00 0.00 74 1016.6
20260502102916 50 0.0 0.0 0.00 0.00 0.00 73 1016.5
20260502102416 50 0.0 0.0 0.00 0.00 0.00 72 1016.5
20260502101916 50 0.0 0.0 0.00 0.00 0.00 73 1016.6
20260502101416 50 0.0 0.0 0.00 0.00 0.00 72 1016.7
20260502100916 50 0.0 0.0 0.00 0.00 0.00 73 1016.6
20260502100416 50 0.0 0.0 0.00 0.00 0.00 72 1016.5
20260502091416 51 0.0 0.0 0.00 0.00 0.00 69 1016.6
20260502090916 51 0.0 0.0 0.00 0.00 0.00 69 1016.4
20260502090416 52 0.0 1.0 0.00 0.00 0.00 68 1016.5
20260502071416 53 0.0 0.0 0.00 0.00 0.00 67 1017.0
20260502070916 53 0.0 0.0 0.00 0.00 0.00 68 1017.0
20260502070415 53 0.0 1.0 0.00 0.00 0.00 67 1016.9
20260502065915 53 113 1.0 2.0 0.00 0.00 0.00 65 1016.8
20260502065415 53 68 1.0 2.0 0.00 0.00 0.00 67 1016.9
20260502064915 53 0.0 0.0 0.00 0.00 0.00 67 1017.1
20260502064415 53 0.0 0.0 0.00 0.00 0.00 68 1017.1
20260502063915 53 0.0 0.0 0.00 0.00 0.00 68 1017.2
20260502063416 53 0.0 0.0 0.00 0.00 0.00 68 1017.1
20260502062915 53 0.0 1.0 0.00 0.00 0.00 68 1017.0
20260502062416 53 0.0 0.0 0.00 0.00 0.00 67 1017.1
20260502061915 53 0.0 0.0 0.00 0.00 0.00 67 1017.0
20260502061416 53 0.0 0.0 0.00 0.00 0.00 68 1017.0
20260502060915 53 0.0 0.0 0.00 0.00 0.00 67 1017.1
20260502060416 54 0.0 0.0 0.00 0.00 0.00 66 1017.0
20260502055915 54 0.0 0.0 0.00 0.00 0.00 65 1016.9
20260502055416 54 0.0 0.0 0.00 0.00 0.00 65 1016.9
20260502054915 54 0.0 0.0 0.00 0.00 0.00 66 1016.9
20260502054415 54 0.0 0.0 0.00 0.00 0.00 64 1016.9
20260502053916 54 0.0 0.0 0.00 0.00 0.00 64 1017.0
20260502053416 55 0.0 0.0 0.00 0.00 0.00 65 1017.0
20260502052916 55 0.0 1.0 0.00 0.00 0.00 64 1017.0
20260502052415 55 0.0 0.0 0.00 0.00 0.00 63 1017.0
20260502051915 55 0.0 0.0 0.00 0.00 0.00 64 1017.1
20260502051416 55 0.0 0.0 0.00 0.00 0.00 63 1016.9
20260502050915 55 0.0 0.0 0.00 0.00 0.00 63 1017.1
20260502050415 55 0.0 0.0 0.00 0.00 0.00 63 1017.0
20260502045916 55 0.0 1.0 0.00 0.00 0.00 63 1016.9
20260502045415 55 0.0 0.0 0.00 0.00 0.00 62 1017.0
20260502044916 55 0.0 1.0 0.00 0.00 0.00 62 1017.0
20260502044415 56 0.0 0.0 0.00 0.00 0.00 62 1016.9
20260502043915 56 0.0 0.0 0.00 0.00 0.00 62 1016.9
20260502043415 56 0.0 0.0 0.00 0.00 0.00 62 1016.9
20260502042915 56 0.0 1.0 0.00 0.00 0.00 62 1016.9
20260502042415 56 0.0 0.0 0.00 0.00 0.00 61 1016.9
20260502041915 56 0.0 0.0 0.00 0.00 0.00 61 1016.9
20260502041415 57 135 1.0 3.0 0.00 0.00 0.00 60 1016.9
20260502040916 57 225 1.0 2.0 0.00 0.00 0.00 60 1017.0
20260502040415 57 0.0 1.0 0.00 0.00 0.00 61 1016.8
20260502035917 57 180 2.0 7.0 0.00 0.00 0.00 61 1016.7
20260502035417 57 0.0 1.0 0.00 0.00 0.00 61 1016.5
20260502034916 57 0.0 1.0 0.00 0.00 0.00 61 1016.4
20260502034416 57 0.0 0.0 0.00 0.00 0.00 61 1016.4
20260502033917 57 0.0 0.0 0.00 0.00 0.00 62 1016.5
20260502033417 57 225 1.0 2.0 0.00 0.00 0.00 62 1016.4
20260502032916 57 0.0 1.0 0.00 0.00 0.00 64 1016.4
20260502032416 57 0.0 0.0 0.00 0.00 0.00 64 1016.5
20260502031917 58 0.0 0.0 0.00 0.00 0.00 64 1016.5
20260502031417 58 0.0 0.0 0.00 0.00 0.00 64 1016.5
20260502030917 58 158 1.0 3.0 0.00 0.00 0.00 65 1016.5
20260502030417 58 0.0 1.0 0.00 0.00 0.00 65 1016.3
20260502025917 58 0.0 1.0 0.00 0.00 0.00 66 1016.2
20260502025416 58 0.0 0.0 0.00 0.00 0.00 67 1016.1
20260502024917 58 0.0 0.0 0.00 0.00 0.00 67 1016.1
20260502024417 59 0.0 0.0 0.00 0.00 0.00 66 1016.1
20260502023917 59 0.0 1.0 0.00 0.00 0.00 67 1016.2
20260502023417 59 0.0 0.0 0.00 0.00 0.00 67 1016.1
20260502022916 59 0.0 0.0 0.00 0.00 0.00 67 1016.2
20260502022417 59 225 1.0 2.0 0.00 0.00 0.00 67 1016.2
20260502021917 59 0.0 0.0 0.00 0.00 0.00 68 1016.1
20260502021416 59 0.0 0.0 0.00 0.00 0.00 67 1016.2
20260502020917 59 0.0 0.0 0.00 0.00 0.00 67 1016.1
20260502020416 60 0.0 1.0 0.00 0.00 0.00 68 1016.1
20260502015916 60 0.0 0.0 0.00 0.00 0.00 68 1016.0
20260502015416 60 0.0 0.0 0.00 0.00 0.00 68 1015.9
20260502014916 60 0.0 0.0 0.00 0.00 0.00 67 1015.7
20260502014417 60 0.0 0.0 0.00 0.00 0.00 67 1015.7
20260502013916 61 0.0 1.0 0.00 0.00 0.00 66 1015.8
20260502013417 61 0.0 0.0 0.00 0.00 0.00 66 1015.5
20260502012917 61 0.0 0.0 0.00 0.00 0.00 65 1015.5
20260502012417 61 0.0 1.0 0.00 0.00 0.00 65 1015.4
20260502011916 61 0.0 0.0 0.00 0.00 0.00 65 1015.2
20260502011417 61 0.0 0.0 0.00 0.00 0.00 63 1015.1
20260502010916 61 0.0 0.0 0.00 0.00 0.00 65 1015.1
20260502010417 61 0.0 0.0 0.00 0.00 0.00 64 1014.8
20260502005916 62 0.0 0.0 0.00 0.00 0.00 61 1014.7
20260502005417 62 0.0 0.0 0.00 0.00 0.00 61 1014.6
20260502004916 62 0.0 1.0 0.00 0.00 0.00 60 1014.3
20260502004416 62 0.0 0.0 0.00 0.00 0.00 59 1014.2
20260502003916 62 0.0 1.0 0.00 0.00 0.00 59 1014.1
20260502003416 63 0.0 0.0 0.00 0.00 0.00 59 1013.8
20260502002916 63 0.0 0.0 0.00 0.00 0.00 59 1013.7
20260502002416 63 0.0 0.0 0.00 0.00 0.00 59 1013.7
20260502001916 63 0.0 1.0 0.00 0.00 0.00 59 1013.7
20260502001417 63 0.0 1.0 0.00 0.00 0.00 58 1013.7
20260502000916 64 0.0 0.0 0.00 0.00 0.00 57 1013.6
20260502000417 64 0.0 0.0 0.00 0.00 0.00 57 1013.6
20260501235917 64 0.0 0.0 0.00 0.00 0.00 56 1013.7
20260501235416 65 0.0 0.0 0.00 0.00 0.00 55 1013.7
20260501234916 65 0.0 0.0 0.00 0.00 0.00 54 1013.6
20260501234417 65 0.0 1.0 0.00 0.00 0.00 55 1013.5
20260501233917 65 0.0 0.0 0.00 0.00 0.00 54 1013.4
20260501233416 65 0.0 0.0 0.00 0.00 0.00 53 1013.4
20260501232916 66 0.0 0.0 0.00 0.00 0.00 54 1013.1
20260501232416 66 0.0 0.0 0.00 0.00 0.00 53 1012.9
20260501231916 66 0.0 0.0 0.00 0.00 0.00 51 1012.9
20260501231417 67 248 1.0 1.0 0.00 0.00 0.00 51 1013.0
20260501230916 67 0.0 0.0 0.00 0.00 0.00 53 1013.1
20260501230417 67 0.0 0.0 0.00 0.00 0.00 53 1013.0
20260501225916 67 0.0 1.0 0.00 0.00 0.00 53 1013.0
20260501225416 68 0.0 1.0 0.00 0.00 0.00 50 1013.0
20260501224916 68 0.0 1.0 0.00 0.00 0.00 52 1013.0
20260501224416 68 0.0 1.0 0.00 0.00 0.00 48 1013.1
20260501223916 68 0.0 0.0 0.00 0.00 0.00 50 1013.0
20260501223416 68 0.0 0.0 0.00 0.00 0.00 50 1013.0
20260501222916 69 0.0 1.0 0.00 0.00 0.00 53 1013.0
20260501222416 68 203 1.0 2.0 0.00 0.00 0.00 50 1013.2
20260501221916 68 248 1.0 2.0 0.00 0.00 0.00 49 1013.3
20260501221416 69 248 1.0 1.0 0.00 0.00 0.00 51 1013.5
20260501220916 69 225 2.0 5.0 0.00 0.00 0.00 49 1013.5
20260501220416 69 248 3.0 5.0 0.00 0.00 0.00 49 1013.6
20260501215916 69 225 3.0 5.0 0.00 0.00 0.00 49 1013.7
20260501215416 69 203 2.0 4.0 0.00 0.00 0.00 50 1013.7
20260501214916 68 225 2.0 3.0 0.00 0.00 0.00 50 1013.8
20260501214416 68 203 2.0 3.0 0.00 0.00 0.00 50 1013.9
20260501213916 68 0.0 1.0 0.00 0.00 0.00 50 1013.8
20260501213416 69 0.0 1.0 0.00 0.00 0.00 51 1013.9
20260501212916 69 0.0 1.0 0.00 0.00 0.00 52 1013.8
20260501212416 69 0.0 0.0 0.00 0.00 0.00 52 1013.8
20260501211917 70 248 1.0 2.0 0.00 0.00 0.00 49 1013.8
20260501211416 70 248 1.0 2.0 0.00 0.00 0.00 49 1013.7
20260501210917 71 180 2.0 5.0 0.00 0.00 0.00 46 1013.8
20260501210416 71 0.0 1.0 0.00 0.00 0.00 48 1013.7
20260501205916 71 0.0 1.0 0.00 0.00 0.00 49 1013.8
20260501205416 71 0.0 1.0 0.00 0.00 0.00 52 1013.8
20260501204916 71 203 2.0 3.0 0.00 0.00 0.00 44 1013.8
20260501204416 71 225 1.0 1.0 0.00 0.00 0.00 50 1013.8
20260501203916 70 225 2.0 4.0 0.00 0.00 0.00 48 1013.9
20260501203416 70 203 1.0 2.0 0.00 0.00 0.00 44 1014.1
20260501202916 71 248 2.0 5.0 0.00 0.00 0.00 46 1014.2
20260501202416 70 248 2.0 3.0 0.00 0.00 0.00 45 1014.2
20260501201916 71 225 3.0 5.0 0.00 0.00 0.00 45 1014.4
20260501201416 71 225 2.0 4.0 0.00 0.00 0.00 45 1014.3
20260501200916 71 180 2.0 3.0 0.00 0.00 0.00 45 1014.3
20260501200416 70 225 1.0 2.0 0.00 0.00 0.00 45 1014.5
20260501195916 70 248 1.0 3.0 0.00 0.00 0.00 43 1014.5
20260501195416 70 225 1.0 3.0 0.00 0.00 0.00 45 1014.7
20260501194916 70 225 1.0 2.0 0.00 0.00 0.00 45 1014.5
20260501194416 70 225 2.0 6.0 0.00 0.00 0.00 41 1014.4
20260501193916 71 225 2.0 3.0 0.00 0.00 0.00 43 1014.5
20260501193417 71 0.0 1.0 0.00 0.00 0.00 42 1014.7
20260501192916 70 0.0 1.0 0.00 0.00 0.00 41 1014.6
20260501192416 70 0.0 1.0 0.00 0.00 0.00 41 1014.6
20260501191916 70 203 1.0 2.0 0.00 0.00 0.00 41 1014.7
20260501191416 71 225 1.0 2.0 0.00 0.00 0.00 41 1015.0
20260501190916 71 248 1.0 1.0 0.00 0.00 0.00 41 1015.1
20260501190416 70 203 1.0 2.0 0.00 0.00 0.00 39 1015.0
20260501185916 71 225 3.0 6.0 0.00 0.00 0.00 40 1015.1
20260501185416 71 225 1.0 2.0 0.00 0.00 0.00 39 1015.1
20260501184916 71 248 1.0 1.0 0.00 0.00 0.00 39 1015.1
20260501184416 71 225 2.0 4.0 0.00 0.00 0.00 42 1015.2
20260501183916 71 90 2.0 4.0 0.00 0.00 0.00 37 1015.2
20260501183416 71 180 2.0 3.0 0.00 0.00 0.00 39 1015.4
20260501182916 71 158 4.0 8.0 0.00 0.00 0.00 40 1015.4
20260501182416 71 180 2.0 4.0 0.00 0.00 0.00 40 1015.5
20260501181916 71 180 2.0 5.0 0.00 0.00 0.00 38 1015.4
20260501181416 70 248 2.0 8.0 0.00 0.00 0.00 41 1015.5
20260501180916 71 0.0 2.0 0.00 0.00 0.00 39 1015.5
20260501180416 71 203 2.0 4.0 0.00 0.00 0.00 39 1015.4
20260501175916 72 225 1.0 2.0 0.00 0.00 0.00 43 1015.5
20260501175416 72 203 2.0 4.0 0.00 0.00 0.00 45 1015.6
20260501174916 72 180 2.0 5.0 0.00 0.00 0.00 42 1015.6
20260501174416 71 248 1.0 1.0 0.00 0.00 0.00 46 1015.4
20260501173916 71 180 1.0 2.0 0.00 0.00 0.00 41 1015.6
20260501173416 71 203 1.0 2.0 0.00 0.00 0.00 42 1015.7
20260501172916 70 180 1.0 2.0 0.00 0.00 0.00 44 1015.6
20260501172416 70 180 1.0 3.0 0.00 0.00 0.00 42 1015.7
20260501171916 69 293 1.0 2.0 0.00 0.00 0.00 45 1015.9
20260501171416 69 225 2.0 7.0 0.00 0.00 0.00 45 1015.8
20260501170916 70 0.0 1.0 0.00 0.00 0.00 43 1015.9
20260501170416 70 203 2.0 3.0 0.00 0.00 0.00 45 1016.0
20260501165916 70 225 3.0 5.0 0.00 0.00 0.00 47 1016.0
20260501165416 69 180 1.0 2.0 0.00 0.00 0.00 48 1016.0
20260501164916 68 203 1.0 2.0 0.00 0.00 0.00 47 1016.0
20260501164416 68 68 1.0 3.0 0.00 0.00 0.00 44 1016.0
20260501163916 68 180 1.0 2.0 0.00 0.00 0.00 48 1016.2
20260501163416 68 180 1.0 3.0 0.00 0.00 0.00 48 1016.2
20260501162916 68 135 1.0 1.0 0.00 0.00 0.00 47 1016.3
20260501162416 68 225 3.0 6.0 0.00 0.00 0.00 49 1016.4
20260501161916 67 0.0 1.0 0.00 0.00 0.00 49 1016.5
20260501161416 67 248 1.0 3.0 0.00 0.00 0.00 50 1016.5
20260501160916 67 180 1.0 3.0 0.00 0.00 0.00 48 1016.6
20260501160416 67 0.0 1.0 0.00 0.00 0.00 54 1016.6
20260501155916 66 180 2.0 3.0 0.00 0.00 0.00 51 1016.5
20260501155416 65 0.0 0.0 0.00 0.00 0.00 55 1016.5
20260501154916 65 0 1.0 1.0 0.00 0.00 0.00 52 1016.5
20260501154416 65 135 1.0 2.0 0.00 0.00 0.00 49 1016.5
20260501153916 65 180 2.0 3.0 0.00 0.00 0.00 52 1016.7
20260501153416 65 248 1.0 4.0 0.00 0.00 0.00 53 1016.8